Flag for U.S.A. Weather past 2 weeks in Oklahoma City, Oklahoma, U.S.A.

Now
68 °F

Light rain. Fog.


Feels Like: 68 °F
Forecast: 67 / 76 °F
Wind: 10 mph from Northeast

Location: Will Rogers World Airport

Current Time: Jul 31, 2014 at 7:44:16 AM

Latest Report: Jul 31, 2014 at 6:52 AM


Visibility: 3 mi

Pressure: 30.03 "Hg

Humidity: 90%

Dew point: 65 °F

Location of Oklahoma CityLocation

Historic Weather in Oklahoma City — Graph

°F

Oklahoma City temperature yesterday

Maximum temperature yesterday: 73 °F (at 2:52 AM)
Minimum temperature yesterday: 67 °F (at 7:52 AM)
Average temperature yesterday: 71 °F

Past Weeks' High & Low Weather Summary

 TemperatureHumidityPressure
High100 °F (Jul 26, 3:52 PM)96% (Jul 17, 4:52 AM)30.23 "Hg (Jul 17, 4:52 AM)
Low62 °F (Jul 16, 11:52 AM)30% (Jul 25, 6:52 PM)29.80 "Hg (Jul 25, 7:52 PM)
Average77 °F69%29.99 "Hg
* Reported Jul 16 5:52 AM — Jul 31 5:52 AM, Oklahoma City, Weather by CustomWeather, © 2014

Note: Actual official high and low records may vary slightly from our data, if they occured in-between our weather recording intervals... More about our weather records

Advertising

Oklahoma City weather history for previous 24 hours

 ConditionsComfort  
Time TempWeatherWind HumidityBarometerVisibility
5:52 AM
Jul 31
68 °FLight rain. Fog.7 mph90%30.02 "Hg4 mi
4:52 AM68 °FMostly cloudy.10 mph90%30.02 "Hg9 mi
3:52 AM68 °FFog.10 mph93%30.01 "Hg4 mi
2:52 AM69 °FDrizzle. Fog.13 mph90%30.01 "Hg4 mi
1:52 AM69 °FLow clouds.10 mph90%30.01 "Hg7 mi
12:52 AM69 °FLight rain. Overcast.9 mph90%30.02 "Hg10 mi
11:52 PM
Jul 30
70 °FMostly cloudy.9 mph87%30.01 "Hg10 mi
10:52 PM70 °FLow clouds.8 mph90%29.98 "Hg10 mi
9:52 PM71 °FMostly cloudy.6 mph87%29.97 "Hg10 mi
8:52 PM70 °FLow clouds.9 mph90%29.94 "Hg10 mi
8:01 PM70 °FLight rain. Fog.14 mph88%29.97 "Hg6 mi
6:52 PM72 °FStrong thunderstorms. Fog.10 mph87%29.90 "Hg2 mi
5:52 PM72 °FMore clouds than sun.10 mph87%29.90 "Hg10 mi
4:52 PM72 °FLight rain. Mostly cloudy.10 mph87%29.94 "Hg8 mi
3:52 PM72 °FLight rain. Overcast.10 mph87%29.96 "Hg10 mi
3:02 PM72 °FLight rain. Mostly cloudy.12 mph88%30.00 "Hg10 mi
2:52 PM72 °FLight rain. Cloudy.14 mph87%29.97 "Hg9 mi
1:52 PM72 °FLight rain. Fog.14 mph91%29.98 "Hg6 mi
12:52 PM71 °FLight rain. Fog.12 mph90%30.00 "Hg6 mi
11:52 AM70 °FLight rain. Fog.14 mph87%30.02 "Hg4 mi
10:59 AM70 °FLight rain. Fog.No wind88%30.07 "Hg5 mi
9:52 AM68 °FLight rain. Cloudy.13 mph93%30.03 "Hg7 mi
8:52 AM67 °FHeavy rain. Fog.9 mph90%30.05 "Hg1 mi
7:52 AM67 °FRain. Fog.8 mph90%30.05 "Hg3 mi
Weather by CustomWeather, © 2014

See weather overviewHow to use our weather pages